Weather History for KSDL - May, 2013

Change the Weather History Date:

Friday, May 24, 2013

  Actual Average Record
Temperature  
Mean Temperature 82 °F -  
Max Temperature 96 °F 94 °F 107 °F (2001)
Min Temperature 68 °F 69 °F 57 °F (2008)
Cooling Degree Days 17    
Growing Degree Days 32 (Base 50)    
Moisture  
Dew Point 26 °F    
Average Humidity 13    
Maximum Humidity 27    
Minimum Humidity 7    
Precipitation  
Precipitation 0.00 in - - ()
Sea Level Pressure  
Sea Level Pressure 29.80 in    
Wind  
Wind Speed 3 mph (SW)    
Max Wind Speed 13 mph    
Max Gust Speed 16 mph    
Visibility 10 miles    
Events      
Averages and records for this station are not official NWS values.
T = Trace of Precipitation, MM = Missing Value Source: NWS Daily Summary

Daily Weather History Graph

Daily Weather History Graph

Search for Another Location

Airport or City:

Trip Planner

Search our weather history database for the weather conditions in past years. The results will help you decide how hot, cold, wet, or windy it might be!

Date:

Astronomy

May. 24, 2013 Rise Set
Actual Time 5:21 AM MST 7:28 PM MST
Civil Twilight 4:53 AM MST 7:56 PM MST
Nautical Twilight 4:19 AM MST 8:30 PM MST
Astronomical Twilight 3:42 AM MST 9:07 PM MST
Moon 7:15 PM MST (5/24) 4:54 AM MST (5/24)
Length of Visible Light 15h 02m
Length of Day
14h 06m
Full, 100% of the Moon is Illuminated
May 24
Full
May 24
Full
May 31
Last Quarter
Jun 8
New
Jun 16
First Quarter

Hourly Weather History & Observations

Time (MST) Temp. Dew Point Humidity Pressure Visibility Wind Dir Wind Speed Gust Speed Precip Events Conditions
12:53 AM 79.0 °F 28.0 °F 15% 29.76 in 10.0 mi NNW 3.5 mph - N/A   Clear
1:53 AM 75.9 °F 27.0 °F 16% 29.78 in 10.0 mi Calm Calm - N/A   Clear
2:53 AM 73.9 °F 27.0 °F 18% 29.79 in 10.0 mi Calm Calm - N/A   Clear
3:53 AM 72.0 °F 28.0 °F 20% 29.80 in 10.0 mi Calm Calm - N/A   Clear
4:53 AM 70.0 °F 28.0 °F 21% 29.81 in 10.0 mi Calm Calm - N/A   Clear
5:53 AM 68.0 °F 33.1 °F 27% 29.83 in 10.0 mi Calm Calm - N/A   Clear
6:53 AM 73.0 °F 34.0 °F 24% 29.84 in 10.0 mi Calm Calm - N/A   Clear
7:53 AM 79.0 °F 30.0 °F 17% 29.85 in 10.0 mi Calm Calm - N/A   Clear
8:53 AM 84.0 °F 21.9 °F 10% 29.86 in 10.0 mi SE 5.8 mph - N/A   Clear
9:53 AM 84.9 °F 26.1 °F 12% 29.86 in 10.0 mi SSE 5.8 mph - N/A   Clear
10:53 AM 87.1 °F 32.0 °F 14% 29.85 in 10.0 mi South 6.9 mph - N/A   Clear
11:53 AM 89.1 °F 30.9 °F 12% 29.84 in 10.0 mi Variable 5.8 mph - N/A   Clear
12:53 PM 91.9 °F 27.0 °F 10% 29.82 in 10.0 mi SSE 9.2 mph - N/A   Clear
1:53 PM 93.0 °F 26.1 °F 9% 29.80 in 10.0 mi South 12.7 mph 16.1 mph N/A   Clear
2:53 PM 95.0 °F 26.1 °F 9% 29.78 in 10.0 mi Variable 3.5 mph - N/A   Clear
3:53 PM 95.0 °F 26.1 °F 9% 29.76 in 10.0 mi East 6.9 mph - N/A   Clear
4:53 PM 96.1 °F 28.0 °F 9% 29.75 in 10.0 mi West 8.1 mph - N/A   Clear
5:53 PM 95.0 °F 28.9 °F 10% 29.74 in 10.0 mi West 5.8 mph - N/A   Clear
6:53 PM 91.9 °F 24.1 °F 9% 29.75 in 10.0 mi WSW 10.4 mph - N/A   Clear
7:53 PM 89.1 °F 17.1 °F 7% 29.75 in 10.0 mi WSW 8.1 mph - N/A   Clear
8:53 PM 87.1 °F 17.1 °F 8% 29.77 in 10.0 mi West 3.5 mph - N/A   Clear
9:53 PM 86.0 °F 21.0 °F 9% 29.78 in 10.0 mi West 3.5 mph - N/A   Clear
10:53 PM 82.9 °F 23.0 °F 11% 29.79 in 10.0 mi Calm Calm - N/A   Clear
11:53 PM 79.0 °F 24.1 °F 13% 29.79 in 10.0 mi Calm Calm - N/A   Clear